map of MCG home
MCG - Airport
Location
City:  McGrath, Alaska, United States
Name:McGrath Airport
ICAO:PAMC
IATA:MCG
FAA LID:MCG

Details
Type:Airport (Airfield)
Use:Public/Civil
Latitude:6257'10"N (62.952784)
Longitude:15536'25"W (-155.607047)
Datum:WGS 1984
Elevation:342 ft (104 m)
Variation:13.94E (WMM2015 magnetic declination)
-0.36 annual change
Runways:2
Longest:5936 × 100 ft (1809 × 30.5 m), paved

Time
Time Zone:UTC-9 (DST-8)
Local Time:

Weather
METAR:PAMC 162153Z AUTO 31004KT 10SM CLR M23/M25 A2977 RMK AO2 SLP094 T12331250 TSNO
TAF:PAMC 161735Z 1618/1718 02004KT P6SM SCT002 SCT200
FM170900 00000KT P6SM OVC050

Related Locations
Nearby:
Farthest:NZSP: 10554 mi / 16985 km
Amundsen-Scott South Pole Station [Jack F. Paulus Skiway], AQ

Find:

   beyond  
but within

Other Information
Maps:
NOTAMs:
Links:
Sources:

  
  • flag of United States
  • flag of Alaska
  

Sectional Chart

Flight Planning
at skyvector.com

Satellite Image

Google Maps Satellite view

 

Copyright © 2004-2019 Karl L. Swartz. All rights reserved.
The Great Circle Mapper name and logo are trademarks of the Great Circle Mapper.
All other trademarks mentioned herein belong to their respective owners.
Please see credits for attibutions and further copyright information.

  Follow gcmap on Facebook Follow gcmap on Twitter Follow gcmap on Google+ GCmap on LinkedIn

hCard Microformat

Geo Microformat